Change the Weather History Date:

Friday, April 26, 2013

  Actual Average Record
Temperature  
Mean Temperature 51 °F 46 °F  
Max Temperature 73 °F 59 °F 77 °F (1980)
Min Temperature 28 °F 33 °F 21 °F (1961)
Degree Days  
Heating Degree Days 14 19  
Month to date heating degree days 648 567  
Since 1 July heating degree days 6828 7338  
Moisture  
Dew Point 32 °F    
Average Humidity 56    
Maximum Humidity 92    
Minimum Humidity 19    
Precipitation  
Precipitation 0.00 in 0.04 in 0.33 in (2012)
Month to date precipitation 1.36 1.07  
Year to date precipitation 3.31 4.46  
Snow  
Snow 0.00 in - - ()
Month to date snowfall 0.3  
Year to date snowfall 8.6  
Since 1 July snowfall 17.4  
Snow Depth 0.00 in    
Sea Level Pressure  
Sea Level Pressure 30.08 in    
Wind  
Wind Speed 7 mph (WSW)    
Max Wind Speed 23 mph    
Max Gust Speed 36 mph    
Visibility 10 miles    
Events      
T = Trace of Precipitation, MM = Missing Value Source: NWS Daily Summary

Daily Weather History Graph

Daily Weather History Graph

Search for Another Location

Airport or City:

Trip Planner

Search our weather history database for the weather conditions in past years. The results will help you decide how hot, cold, wet, or windy it might be!

Date:

Astronomy

Apr. 26, 2013 Rise Set
Actual Time 6:26 AM MDT 8:44 PM MDT
Civil Twilight 5:51 AM MDT 9:18 PM MDT
Nautical Twilight 5:09 AM MDT 10:01 PM MDT
Astronomical Twilight 4:20 AM MDT 10:51 PM MDT
Moon 10:18 PM MDT (4/26) 6:52 AM MDT (4/26)
Length of Visible Light 15h 27m
Length of Day
14h 18m
Full, 99% of the Moon is Illuminated
Apr 26
Full
May 2
Last Quarter
May 9
New
May 17
First Quarter
May 24
Full

Hourly Weather History & Observations

Time (MDT) Temp. Windchill Dew Point Humidity Pressure Visibility Wind Dir Wind Speed Gust Speed Precip Events Conditions
12:55 AM 42.8 °F - 30.2 °F 61% 30.02 in 10.0 mi Calm Calm - N/A   Clear
1:55 AM 36.0 °F 33.3 °F 30.0 °F 79% 30.05 in 10.0 mi North 3.5 mph - N/A   Clear
2:55 AM 34.0 °F - 28.9 °F 82% 30.06 in 10.0 mi Calm Calm - N/A   Clear
3:55 AM 33.1 °F - 30.0 °F 89% 30.07 in 10.0 mi Calm Calm - N/A   Clear
4:55 AM 30.9 °F - 28.0 °F 89% 30.09 in 10.0 mi Calm Calm - N/A   Clear
5:55 AM 30.9 °F - 28.9 °F 92% 30.11 in 10.0 mi Calm Calm - N/A   Clear
6:55 AM 28.9 °F - 26.1 °F 89% 30.12 in 10.0 mi Calm Calm - N/A   Clear
7:55 AM 37.0 °F - 32.0 °F 82% 30.11 in 10.0 mi Calm Calm - N/A   Clear
8:55 AM 46.0 °F - 34.0 °F 63% 30.13 in 10.0 mi Calm Calm - N/A   Clear
9:55 AM 53.1 °F - 36.0 °F 52% 30.11 in 10.0 mi Variable 3.5 mph - N/A   Clear
10:55 AM 59.0 °F - 34.0 °F 39% 30.10 in 10.0 mi South 16.1 mph 23.0 mph N/A   Clear
11:55 AM 63.0 °F - 35.1 °F 35% 30.09 in 10.0 mi SSE 16.1 mph - N/A   Clear
12:55 PM 66.0 °F - 36.0 °F 33% 30.07 in 10.0 mi SSE 17.3 mph - N/A   Clear
1:55 PM 68.0 °F - 36.0 °F 31% 30.06 in 10.0 mi South 13.8 mph 21.9 mph N/A   Scattered Clouds
2:55 PM 70.0 °F - 34.0 °F 27% 30.05 in 10.0 mi WSW 15.0 mph 21.9 mph N/A   Scattered Clouds
3:55 PM 72.0 °F - 30.9 °F 22% 30.04 in 10.0 mi West 12.7 mph 20.7 mph N/A   Partly Cloudy
4:55 PM 71.1 °F - 28.0 °F 20% 30.05 in 10.0 mi West 17.3 mph 27.6 mph N/A   Clear
5:55 PM 71.1 °F - 27.0 °F 19% 30.05 in 10.0 mi West 16.1 mph 21.9 mph N/A   Clear
6:55 PM 69.1 °F - 26.1 °F 20% 30.07 in 10.0 mi West 11.5 mph 21.9 mph N/A   Clear
7:55 PM 66.0 °F - 30.0 °F 26% 30.06 in 10.0 mi West 13.8 mph 21.9 mph N/A   Clear
8:55 PM 57.0 °F - 37.0 °F 47% 30.09 in 10.0 mi North 5.8 mph - N/A   Scattered Clouds
9:55 PM 54.0 °F - 37.0 °F 53% 30.09 in 10.0 mi North 3.5 mph - N/A   Partly Cloudy
10:55 PM 48.0 °F - 37.0 °F 66% 30.08 in 10.0 mi Calm Calm - N/A   Clear
11:55 PM 45.0 °F 43.5 °F 36.0 °F 71% 30.06 in 10.0 mi WSW 3.5 mph - N/A   Clear